Simultaneous Nadir Overpasses (SNOs) Predictions

Prediction of SNOs between GOES-16 and NOAA-20 Satellite Orbit:

Table of predicted SNOs for the next 14.0 days since TLE Epoch: 5/11/2019
Index Date Time (GOES-16) GOES-16 Lat,Lon NOAA-20 Lat,Lon Distance(km) Time Diff (sec)
1 05/12/2019 06:38:51 -0.00, -75.19 0.64, -78.03 323.52 80
2 05/13/2019 06:17:26 -0.00, -75.19 -0.40, -73.50 193.14 80
3 05/14/2019 18:39:21 0.00, -75.20 -0.82, -78.80 410.64 80
4 05/15/2019 18:23:17 0.00, -75.21 0.22, -74.27 106.59 80
5 05/17/2019 06:45:04 0.00, -75.22 0.95, -79.54 492.36 80
6 05/18/2019 06:23:39 0.00, -75.23 -0.03, -75.01 25.18 80
7 05/20/2019 18:26:50 -0.01, -75.26 -0.14, -75.78 59.75 80
8 05/21/2019 18:10:45 -0.01, -75.27 0.90, -71.25 458.31 80
9 05/23/2019 06:32:32 0.01, -75.30 0.27, -76.52 139.46 80
10 05/24/2019 06:11:07 0.01, -75.31 -0.71, -71.99 378.81 80




NCC Satellite Simultaneous Nadir Overpasses (SNOs) Prediction Service
